Change the Weather History Date:

Saturday, February 16, 2013

  Actual Average Record
Temperature  
Mean Temperature 42 °F -  
Max Temperature 46 °F 46 °F 53 °F (1998)
Min Temperature 39 °F 35 °F 24 °F (2008)
Degree Days  
Heating Degree Days 22    
Moisture  
Dew Point 40 °F    
Average Humidity 93    
Maximum Humidity 100    
Minimum Humidity 79    
Precipitation  
Precipitation 0.00 in - - ()
Sea Level Pressure  
Sea Level Pressure 30.21 in    
Wind  
Wind Speed 4 mph ()    
Max Wind Speed 8 mph    
Max Gust Speed -    
Visibility 5.2 miles    
Events Fog , Rain    
Averages and records for this station are not official NWS values.
T = Trace of Precipitation, MM = Missing Value Source: Averaged Metar Reports

Daily Weather History Graph

Daily Weather History Graph

Search for Another Location

Airport or City:

Trip Planner

Search our weather history database for the weather conditions in past years. The results will help you decide how hot, cold, wet, or windy it might be!

Date:

Astronomy

Feb. 16, 2013 Rise Set
Actual Time 7:54 AM CET 5:56 PM CET
Civil Twilight 7:19 AM CET 6:31 PM CET
Nautical Twilight 6:39 AM CET 7:11 PM CET
Astronomical Twilight 6:00 AM CET 7:50 PM CET
Moon 10:03 AM CET (2/16) 12:32 AM CET (2/16)
Length of Visible Light 11h 12m
Length of Day
10h 01m
Waxing Crescent, 37% of the Moon is Illuminated
Feb 16
Waxing Crescent
Feb 17
First Quarter
Feb 25
Full
Mar 4
Last Quarter
Mar 11
New

Hourly Weather History & Observations

Time (CET) Temp. Windchill Dew Point Humidity Pressure Visibility Wind Dir Wind Speed Gust Speed Precip Events Conditions
12:25 AM 41.0 °F 37.1 °F 39.2 °F 93% 30.15 in 4.3 mi West 5.8 mph - N/A   Mostly Cloudy
12:55 AM 39.2 °F 35.9 °F 39.2 °F 100% 30.15 in 3.7 mi West 4.6 mph - N/A   Mostly Cloudy
1:00 AM 40 °F - 40 °F 99% 30.18 in 3 mi West 4.5 mph - - Rain Rain
1:25 AM 41.0 °F 37.1 °F 39.2 °F 93% 30.15 in 4.3 mi West 5.8 mph - N/A   Light Drizzle
1:55 AM 41.0 °F 38.0 °F 39.2 °F 93% 30.15 in 4.3 mi West 4.6 mph - N/A   Mostly Cloudy
2:25 AM 39.2 °F 35.9 °F 39.2 °F 100% 30.15 in 5.0 mi West 4.6 mph - N/A   Mostly Cloudy
2:55 AM 39.2 °F 35.9 °F 39.2 °F 100% 30.15 in 4.3 mi West 4.6 mph - N/A Rain Light Rain
3:25 AM 41.0 °F 37.1 °F 39.2 °F 93% 30.15 in 4.3 mi West 5.8 mph - N/A   Mostly Cloudy
3:55 AM 41.0 °F 37.1 °F 41.0 °F 100% 30.15 in 2.5 mi WSW 5.8 mph - N/A Rain Light Rain
4:00 AM 41 °F - 40 °F 94% 30.18 in 2 mi WSW 6.7 mph - - Rain Light Rain Showers
4:55 AM 41.0 °F 39.0 °F 39.2 °F 93% 30.18 in 2.5 mi West 3.5 mph - N/A   Light Drizzle
5:25 AM 41.0 °F 37.1 °F 39.2 °F 93% 30.18 in 2.5 mi West 5.8 mph - N/A Rain Light Rain
5:55 AM 41.0 °F 35.8 °F 39.2 °F 93% 30.18 in 3.7 mi West 8.1 mph - N/A   Mostly Cloudy
6:25 AM 41.0 °F 36.4 °F 41.0 °F 100% 30.18 in 3.7 mi West 6.9 mph - N/A   Mostly Cloudy
6:55 AM 41.0 °F 37.1 °F 39.2 °F 93% 30.18 in 5.0 mi West 5.8 mph - N/A   Mostly Cloudy
7:00 AM 40 °F - 40 °F 100% 30.20 in 5 mi West 6.7 mph - -   Mist
7:25 AM 41.0 °F 37.1 °F 39.2 °F 93% 30.18 in 4.3 mi West 5.8 mph - N/A Fog Shallow Fog
7:55 AM 41.0 °F 38.0 °F 39.2 °F 93% 30.18 in 3.7 mi West 4.6 mph - N/A Fog Shallow Fog
8:25 AM 41.0 °F 39.0 °F 41.0 °F 100% 30.21 in 4.3 mi West 3.5 mph - N/A Fog Shallow Fog
8:55 AM 41.0 °F - 41.0 °F 100% 30.21 in 3.1 mi West 2.3 mph - N/A Fog Shallow Fog
9:55 AM 42.8 °F 41.1 °F 41.0 °F 93% 30.21 in 4.3 mi West 3.5 mph - N/A   Partly Cloudy
10:00 AM 42 °F - 41 °F 96% 30.23 in 7 mi West 4.5 mph - -   Overcast
10:25 AM 42.8 °F 41.1 °F 41.0 °F 93% 30.21 in 5.0 mi West 3.5 mph - N/A   Partly Cloudy
10:55 AM 42.8 °F 40.1 °F 41.0 °F 93% 30.21 in 5.6 mi NW 4.6 mph - N/A   Partly Cloudy
11:25 AM 44.6 °F 43.1 °F 41.0 °F 87% 30.24 in 6.2 mi NW 3.5 mph - N/A   Scattered Clouds
11:55 AM 44.6 °F 43.1 °F 42.8 °F 93% 30.24 in 6.2 mi NW 3.5 mph - N/A   Scattered Clouds
12:25 PM 44.6 °F 43.1 °F 42.8 °F 93% 30.24 in 6.2 mi NNW 3.5 mph - N/A   Scattered Clouds
12:55 PM 46.4 °F 44.3 °F 42.8 °F 87% 30.24 in 6.2 mi NW 4.6 mph - N/A   Scattered Clouds
1:00 PM 45 °F - 42 °F 84% 30.24 in 11 mi NW 4.5 mph - -   Partly Cloudy
1:25 PM 44.6 °F 43.1 °F 41.0 °F 87% 30.21 in 6.2 mi WNW 3.5 mph - N/A   Scattered Clouds
1:55 PM 46.4 °F 45.2 °F 41.0 °F 81% 30.21 in 6.2 mi WNW 3.5 mph - N/A   Scattered Clouds
2:25 PM 46.4 °F 43.5 °F 41.0 °F 81% 30.21 in 6.2 mi West 5.8 mph - N/A   Scattered Clouds
2:55 PM 46.4 °F 43.5 °F 41.0 °F 81% 30.21 in 6.2 mi WNW 5.8 mph - N/A   Scattered Clouds
3:55 PM 44.6 °F 41.4 °F 41.0 °F 87% 30.21 in 6.2 mi WNW 5.8 mph - N/A   Partly Cloudy
4:00 PM 45 °F - 41 °F 79% 30.24 in 16 mi WNW 6.7 mph - -   Overcast
4:55 PM 44.6 °F 41.4 °F 41.0 °F 87% 30.21 in 6.2 mi NW 5.8 mph - N/A   Partly Cloudy
5:25 PM 42.8 °F 40.1 °F 41.0 °F 93% 30.21 in 6.2 mi NW 4.6 mph - N/A   Partly Cloudy
5:55 PM 42.8 °F 40.1 °F 41.0 °F 93% 30.21 in 6.2 mi NNW 4.6 mph - N/A   Partly Cloudy
6:25 PM 42.8 °F 41.1 °F 39.2 °F 87% 30.24 in 6.2 mi NNE 3.5 mph - N/A   Partly Cloudy
6:55 PM 42.8 °F - 41.0 °F 93% 30.24 in 6.2 mi East 2.3 mph - N/A   Mostly Cloudy
7:00 PM 41 °F - 40 °F 92% 30.26 in 6 mi ENE 2.2 mph - -   Mist
7:25 PM 41.0 °F 39.0 °F 39.2 °F 93% 30.24 in 6.2 mi ENE 3.5 mph - N/A   Mostly Cloudy
7:55 PM 41.0 °F - 39.2 °F 93% 30.24 in 6.2 mi East 2.3 mph - N/A   Mostly Cloudy
8:25 PM 41.0 °F - 41.0 °F 100% 30.24 in 6.2 mi ENE 2.3 mph - N/A   Mostly Cloudy
8:55 PM 41.0 °F 39.0 °F 39.2 °F 93% 30.24 in 6.2 mi ENE 3.5 mph - N/A   Mostly Cloudy
9:25 PM 41.0 °F 38.0 °F 39.2 °F 93% 30.24 in 6.2 mi East 4.6 mph - N/A   Partly Cloudy
9:55 PM 41.0 °F - 39.2 °F 93% 30.24 in 5.6 mi East 2.3 mph - N/A   Scattered Clouds
10:00 PM 40 °F - 39 °F 96% 30.27 in 3 mi East 2.2 mph - -   Mist
10:55 PM 39.2 °F 35.9 °F 37.4 °F 93% 30.24 in 3.7 mi East 4.6 mph - N/A   Partly Cloudy
11:25 PM 39.2 °F 35.9 °F 39.2 °F 100% 30.24 in 2.5 mi East 4.6 mph - N/A   Scattered Clouds
11:55 PM 39.2 °F - 39.2 °F 100% 30.27 in 2.5 mi Variable 1.2 mph - N/A   Scattered Clouds